Date String (YYYY-MM-DD hh:mm:ss) UTC,Instrument flags,Ambient pressure (hPa),Sample flow (lpm),Bypass flow (lpm),Sample temperature (°C),Ambient temperature (°C),ASC tube jacket temperature (°C),LED temperature (°C),Box temperature (°C),Sample RH (%),Span deviation,Mass concentration (μg/m³),Mass concentration (μg/m³),Mass concentration (μg/m³)
DateTimeUTC,F1_M11,P_M11,Q1_M11,Q2_M11,T1_M11,T2_M11,T3_M11,T4_M11,T5_M11,U1_M11,ZSPAN_M11,X0_M11,X2_M11,X1_M11
2021-12-08 15:00:00,,0819.2,5.00,0.00,22.8,22.3,00.0,31.7,24.7,11.4,0000.0,0014.96,0004.55,0002.83
2021-12-08 15:01:00,,0819.1,4.99,0.00,22.8,22.3,00.0,31.7,24.7,11.5,0000.0,0014.76,0004.54,0002.85
2021-12-08 15:02:00,,0819.0,5.00,0.00,22.8,22.3,00.0,31.7,24.7,11.5,0000.0,0014.82,0004.55,0002.85
2021-12-08 15:03:00,,0819.0,5.00,0.00,22.9,22.2,00.0,31.7,24.7,11.5,0000.0,0015.91,0004.51,0002.84
2021-12-08 15:04:00,,0819.0,4.99,0.00,22.9,22.2,00.0,31.7,24.7,11.5,0000.0,0016.86,0004.44,0002.82
2021-12-08 15:05:00,,0819.0,5.00,0.00,22.9,22.2,00.0,31.7,24.7,11.4,0000.0,0016.52,0004.42,0002.85
2021-12-08 15:06:00,,0819.0,4.99,0.00,22.9,22.2,00.0,31.7,24.7,11.5,0000.0,0015.90,0004.45,0002.87
2021-12-08 15:07:00,,0819.0,5.01,0.00,22.9,22.3,00.0,31.8,24.7,11.5,0000.0,0017.42,0004.49,0002.86
2021-12-08 15:08:00,,0819.0,5.01,0.00,22.9,22.3,00.0,31.8,24.7,11.5,0000.0,0016.69,0004.50,0002.85
2021-12-08 15:09:00,,0819.0,4.99,0.00,22.9,22.3,00.0,31.8,24.7,11.5,0000.0,0016.20,0004.49,0002.86
2021-12-08 15:10:00,,0819.0,5.00,0.00,22.9,22.3,00.0,31.8,24.7,11.5,0000.0,0016.04,0004.47,0002.87
2021-12-08 15:11:00,,0819.0,5.00,0.00,22.9,22.3,00.0,31.8,24.8,11.5,0000.0,0016.33,0004.47,0002.87
2021-12-08 15:12:00,,0819.0,4.99,0.00,23.0,22.3,00.0,31.8,24.8,11.5,0000.0,0016.44,0004.47,0002.85
2021-12-08 15:13:00,,0819.0,5.01,0.00,23.0,22.3,00.0,31.8,24.8,11.5,0000.0,0017.82,0004.44,0002.86
2021-12-08 15:14:00,,0818.9,4.99,0.00,23.0,22.3,00.0,31.8,24.8,11.5,0000.0,0016.97,0004.44,0002.86
2021-12-08 15:15:00,,0818.9,4.99,0.00,23.0,22.3,00.0,31.9,24.8,11.6,0000.0,0016.14,0004.51,0002.88
2021-12-08 15:16:00,,0818.9,5.02,0.00,23.0,22.4,00.0,31.9,24.8,11.6,0000.0,0016.07,0004.48,0002.87
2021-12-08 15:17:00,,0818.9,5.00,0.00,23.0,22.4,00.0,31.9,24.9,11.6,0000.0,0016.41,0004.48,0002.87
2021-12-08 15:18:00,,0819.0,5.00,0.00,23.0,22.4,00.0,31.9,24.9,11.6,0000.0,0015.83,0004.48,0002.88
2021-12-08 15:19:00,,0819.0,5.01,0.00,23.0,22.4,00.0,31.9,24.9,11.6,0000.0,0016.68,0004.40,0002.87
2021-12-08 15:20:00,,0819.0,5.00,0.00,23.1,22.4,00.0,31.9,24.9,11.7,0000.0,0016.47,0004.36,0002.87
2021-12-08 15:21:00,,0819.0,4.99,0.00,23.1,22.4,00.0,32.0,24.9,11.6,0000.0,0016.03,0004.29,0002.87
2021-12-08 15:22:00,,0819.0,5.00,0.00,23.1,22.5,00.0,32.0,24.9,11.6,0000.0,0015.59,0004.30,0002.87
2021-12-08 15:23:00,,0819.0,5.00,0.00,23.1,22.5,00.0,32.0,24.9,11.6,0000.0,0015.45,0004.29,0002.88
2021-12-08 15:24:00,,0818.9,5.01,0.00,23.1,22.5,00.0,32.0,24.9,11.6,0000.0,0013.83,0004.33,0002.87
2021-12-08 15:25:00,,0819.0,5.00,0.00,23.1,22.5,00.0,32.0,25.0,11.6,0000.0,0013.51,0004.39,0002.88
2021-12-08 15:26:00,,0818.9,4.99,0.00,23.2,22.5,00.0,32.0,25.0,11.7,0000.0,0012.83,0004.34,0002.90
2021-12-08 15:27:00,,0818.9,5.00,0.00,23.2,22.5,00.0,32.0,25.0,11.7,0000.0,0013.15,0004.36,0002.90
2021-12-08 15:28:00,,0818.9,5.01,0.00,23.2,22.5,00.0,32.1,25.0,11.6,0000.0,0013.26,0004.38,0002.90
2021-12-08 15:29:00,,0818.9,5.01,0.00,23.2,22.6,00.0,32.1,25.0,11.7,0000.0,0012.18,0004.31,0002.91
2021-12-08 15:30:00,,0818.9,5.00,0.00,23.2,22.6,00.0,32.1,25.1,11.8,0000.0,0011.73,0004.33,0002.94
2021-12-08 15:31:00,,0818.9,5.00,0.00,23.2,22.6,00.0,32.1,25.1,11.7,0000.0,0012.72,0004.39,0002.94
2021-12-08 15:32:00,,0818.9,5.00,0.00,23.3,22.6,00.0,32.1,25.1,11.7,0000.0,0013.46,0004.42,0002.94
2021-12-08 15:33:00,,0818.8,5.00,0.00,23.3,22.6,00.0,32.1,25.1,11.7,0000.0,0013.89,0004.41,0002.96
2021-12-08 15:34:00,,0818.8,5.00,0.00,23.3,22.6,00.0,32.2,25.1,11.6,0000.0,0014.08,0004.44,0002.99
2021-12-08 15:35:00,,0818.9,4.99,0.00,23.3,22.6,00.0,32.2,25.1,11.5,0000.0,0014.32,0004.48,0003.04
2021-12-08 15:36:00,,0818.9,5.01,0.00,23.3,22.6,00.0,32.2,25.1,11.5,0000.0,0014.51,0004.51,0003.10
2021-12-08 15:37:00,,0819.0,5.01,0.00,23.3,22.6,00.0,32.2,25.1,11.5,0000.0,0015.56,0004.60,0003.13
2021-12-08 15:38:00,,0819.1,5.00,0.00,23.3,22.6,00.0,32.2,25.1,11.6,0000.0,0016.73,0004.66,0003.16
2021-12-08 15:39:00,,0819.0,4.98,0.00,23.3,22.7,00.0,32.2,25.1,11.6,0000.0,0017.35,0004.73,0003.19
2021-12-08 15:40:00,,0819.0,5.01,0.00,23.3,22.7,00.0,32.2,25.1,11.6,0000.0,0017.99,0004.87,0003.21
2021-12-08 15:41:00,,0818.9,4.98,0.00,23.4,22.7,00.0,32.3,25.2,11.5,0000.0,0017.95,0004.92,0003.24
2021-12-08 15:42:00,,0818.9,5.00,0.00,23.4,22.7,00.0,32.3,25.2,11.5,0000.0,0017.22,0004.90,0003.26
2021-12-08 15:43:00,,0818.9,5.00,0.00,23.4,22.7,00.0,32.3,25.2,11.5,0000.0,0016.94,0004.93,0003.29
2021-12-08 15:44:00,,0818.9,5.00,0.00,23.4,22.7,00.0,32.3,25.2,11.5,0000.0,0016.66,0005.04,0003.31
2021-12-08 15:45:00,,0819.0,4.99,0.00,23.4,22.7,00.0,32.3,25.2,11.5,0000.0,0016.03,0005.02,0003.33
2021-12-08 15:46:00,,0819.0,5.00,0.00,23.4,22.7,00.0,32.3,25.2,11.6,0000.0,0016.17,0005.04,0003.35
2021-12-08 15:47:00,,0819.0,4.99,0.00,23.4,22.7,00.0,32.3,25.2,11.6,0000.0,0015.97,0005.05,0003.36
2021-12-08 15:48:00,,0818.9,5.01,0.00,23.4,22.7,00.0,32.3,25.2,11.5,0000.0,0015.12,0004.99,0003.36
2021-12-08 15:49:00,,0819.0,5.00,0.00,23.4,22.8,00.0,32.4,25.2,11.4,0000.0,0014.34,0004.96,0003.35
2021-12-08 15:50:00,,0819.0,5.00,0.00,23.5,22.8,00.0,32.4,25.3,11.5,0000.0,0013.85,0004.88,0003.35
2021-12-08 15:51:00,,0819.0,5.00,0.00,23.5,22.8,00.0,32.4,25.3,11.5,0000.0,0013.33,0004.75,0003.36
2021-12-08 15:52:00,,0819.0,5.00,0.00,23.5,22.8,00.0,32.4,25.3,11.5,0000.0,0012.77,0004.75,0003.36
2021-12-08 15:53:00,,0818.9,5.00,0.00,23.5,22.8,00.0,32.4,25.3,11.5,0000.0,0013.82,0004.78,0003.36
2021-12-08 15:54:00,,0818.8,5.00,0.00,23.5,22.9,00.0,32.4,25.3,11.5,0000.0,0014.65,0004.84,0003.36
2021-12-08 15:55:00,,0818.7,4.99,0.00,23.5,22.9,00.0,32.4,25.4,11.5,0000.0,0014.83,0004.83,0003.36
2021-12-08 15:56:00,,0818.8,5.01,0.00,23.5,22.9,00.0,32.4,25.4,11.4,0000.0,0015.22,0004.84,0003.35
2021-12-08 15:57:00,,0818.8,5.00,0.00,23.6,22.9,00.0,32.5,25.4,11.4,0000.0,0015.80,0004.76,0003.32
2021-12-08 15:58:00,,0818.9,5.00,0.00,23.6,22.9,00.0,32.5,25.4,11.4,0000.0,0016.12,0004.75,0003.31
2021-12-08 15:59:00,,0819.0,5.01,0.00,23.6,22.9,00.0,32.5,25.4,11.4,0000.0,0016.26,0004.80,0003.31
